GEFSSE_con_prob3kmehi_006.txt.gz
EHI
1 1 0 0 0 0 1 4 14 37 69 91 98 88 56 17 0 0 0 0 0 0 0 0 0 0 0 0 0 0 0 0 0 0 0 0 0 0 0 0 0 0 0
4 2 0 0 0 0 1 2 8 23 46 68 80 74 48 17 2 0 0 0 0 0 0 0 0 0 0 0 0 0 0 0 0 0 0 0 0 0 0 0 0 0 0
7 3 0 0 0 0 0 1 3 7 16 28 40 40 26 12 3 0 0 0 0 0 0 0 0 0 0 0 0 0 0 0 0 0 0 0 0 0 0 0 0 0 0
6 3 0 0 0 0 0 0 1 2 2 5 9 10 7 4 2 0 0 0 0 0 0 0 0 0 0 0 0 0 0 0 0 0 0 0 0 0 0 0 0 0 0
5 3 0 0 0 0 0 0 0 2 3 2 1 0 1 1 1 0 0 0 0 1 1 0 0 0 0 0 0 0 0 0 0 0 0 0 0 0 0 0 0 0 0
5 4 3 2 2 2 2 1 1 3 4 3 2 2 2 2 1 0 0 1 2 3 3 1 0 0 0 0 0 0 0 0 0 0 0 0 0 1 0 0 0 0 0
6 8 13 17 17 13 8 3 2 3 4 3 3 3 2 1 0 0 1 3 6 8 6 3 1 0 0 0 0 0 0 0 0 0 0 0 0 0 0 0 0 0 0
6 11 20 33 41 37 22 9 5 5 4 3 3 2 1 0 0 0 1 3 7 9 6 3 1 0 0 0 0 0 0 0 0 0 0 0 0 0 0 0 0 0 0
6 11 23 36 46 42 26 13 13 20 22 16 8 2 0 0 0 0 0 1 3 4 2 1 0 0 0 0 0 0 0 0 0 0 0 0 0 0 0 0 0 0 0
10 15 26 30 25 18 12 9 16 29 34 26 14 5 1 0 0 0 0 0 0 0 0 0 0 0 0 0 0 0 0 0 0 0 0 0 0 0 0 0 0 0 0
18 19 22 16 6 1 0 2 8 15 18 15 10 5 1 0 0 0 0 0 0 0 0 0 0 0 0 0 0 0 0 0 0 0 0 0 0 0 0 0 0 0 0
16 12 8 4 1 0 0 0 0 0 0 0 1 2 1 0 0 0 0 0 0 0 0 0 0 0 0 0 0 0 0 0 0 0 0 0 0 0 0 0 0 0 0
6 3 1 0 0 0 0 0 0 0 0 0 0 0 0 0 0 0 0 0 0 0 0 0 0 0 0 0 0 0 0 0 0 0 0 0 0 0 0 0 0 0 0
1 0 0 0 0 0 0 0 0 0 0 0 0 0 0 0 0 0 0 0 0 0 0 0 0 0 0 0 0 0 0 0 0 0 0 0 0 0 0 0 0 0 0
0 0 0 0 0 0 0 0 0 0 0 0 0 0 0 0 0 0 0 0 0 0 0 0 0 0 0 0 0 0 0 0 0 0 0 0 0 0 0 0 0 0 0
0 0 0 0 0 0 0 0 0 0 0 0 0 0 0 0 0 0 0 0 0 0 0 0 0 0 0 0 0 0 0 0 0 0 0 0 0 0 0 0 0 0 0
3 3 2 1 1 2 2 1 0 0 0 0 0 0 0 0 0 0 0 0 0 0 0 0 0 0 0 0 0 0 0 0 0 0 0 0 0 0 0 0 0 0 0
15 17 18 16 12 9 5 2 0 0 0 0 0 0 0 0 0 0 0 0 0 0 0 0 0 0 0 0 0 0 0 0 0 0 0 0 0 0 0 0 0 0 0
45 47 52 50 35 18 6 2 0 0 0 0 0 0 0 0 0 0 0 0 0 0 0 1 2 2 1 0 0 0 0 0 0 0 0 0 0 0 0 0 0 0 0
77 80 81 73 51 23 6 1 0 0 0 0 0 0 0 0 0 0 0 0 0 0 0 2 4 4 2 0 0 0 0 0 0 0 0 0 0 0 0 0 0 0 0
88 88 83 69 47 23 6 1 0 0 0 0 0 0 0 0 0 0 0 0 0 1 1 1 2 2 1 0 0 0 0 0 0 0 0 0 0 0 0 0 0 0 0
75 74 70 59 40 20 6 1 0 0 0 0 0 0 0 0 0 0 0 0 1 2 1 0 0 0 0 0 0 0 0 0 0 0 0 0 0 0 0 0 0 0 0
52 56 62 60 43 22 6 1 0 0 0 0 0 0 0 0 0 0 0 0 0 1 0 0 0 0 0 0 0 0 0 0 0 0 0 0 0 0 0 0 0 0 0
27 36 50 54 44 25 9 2 1 0 0 0 0 0 0 0 0 0 0 0 0 0 0 0 0 0 0 0 0 0 0 0 0 0 0 0 0 0 0 0 0 0 0
8 15 25 31 29 19 9 3 2 0 0 0 0 0 0 0 0 0 0 0 0 0 0 0 0 0 0 0 0 0 0 0 0 0 0 0 0 0 0 0 0 0 0
1 3 7 11 12 9 5 3 1 0 0 0 0 0 0 0 0 0 0 0 0 0 0 0 0 0 0 0 0 0 0 0 0 0 0 0 0 0 0 0 0 0 0

GEFSSE_con_prob3kmehi_012.txt.gz
EHI
49 50 45 25 5 1 1 0 0 0 0 0 0 0 0 0 0 0 0 0 0 0 0 0 0 0 0 0 0 0 0 0 0 0 0 0 0 0 0 0 0 0 0
57 49 37 19 4 0 0 0 0 0 0 0 1 1 0 0 0 0 0 0 0 0 0 0 0 0 0 0 0 0 0 0 0 0 0 0 0 0 0 0 0 0 0
51 37 21 9 2 1 1 0 0 0 0 0 1 1 1 1 0 0 0 0 0 0 0 0 0 0 0 0 0 0 0 0 0 0 0 0 0 0 0 0 0 0 0
42 29 11 2 1 2 2 2 2 1 0 0 1 1 2 2 1 0 0 0 1 1 1 1 1 0 0 0 0 0 0 0 0 0 0 0 1 0 0 0 0 0 0
46 27 8 2 2 2 2 2 3 2 2 1 0 1 2 2 1 0 0 1 3 3 2 2 1 0 0 0 0 0 0 0 0 0 0 1 2 1 0 0 0 1 1
41 20 4 2 2 1 1 1 4 6 6 3 1 0 1 2 2 1 1 3 5 4 2 2 2 2 1 0 0 0 0 0 0 0 0 0 1 0 0 0 0 1 1
38 18 3 1 1 0 1 3 7 14 14 8 2 0 1 2 3 5 5 6 7 7 5 3 3 4 2 0 0 0 0 0 0 0 0 0 0 0 0 0 0 0 1
50 27 6 2 1 1 2 6 10 16 18 11 4 1 0 1 4 8 11 10 10 10 6 3 2 2 1 0 0 0 0 0 0 0 0 0 0 0 0 0 0 0 0
62 40 16 5 2 1 3 5 6 9 10 8 3 1 0 1 4 8 11 10 8 6 4 1 0 0 0 0 0 0 0 0 0 0 0 0 0 0 0 0 0 0 0
66 49 26 10 3 1 1 1 1 1 2 2 1 0 0 1 3 4 4 4 2 1 1 0 0 0 0 0 0 0 0 0 0 0 0 0 0 0 0 0 0 0 0
60 46 30 18 8 1 0 0 0 0 0 0 0 0 0 0 1 1 0 0 0 0 0 0 0 0 0 0 0 0 0 0 0 0 0 0 0 0 0 0 0 0 0
42 30 21 19 10 1 0 0 0 0 0 0 0 0 0 0 0 1 0 0 0 0 0 0 0 0 0 0 0 0 0 0 0 0 0 0 0 0 0 0 0 0 0
20 12 8 11 10 5 1 0 0 0 0 0 1 0 0 0 1 2 1 0 0 0 0 0 0 0 0 0 0 0 0 0 0 0 0 0 0 0 0 0 0 0 0
8 8 13 21 26 22 13 5 0 0 0 1 1 0 0 0 0 1 0 0 0 0 0 0 0 0 0 0 0 0 0 0 0 0 0 0 0 0 0 0 0 0 0
16 26 40 53 52 42 29 13 2 0 1 2 1 0 0 0 0 0 0 0 0 0 0 0 0 0 0 0 0 0 0 0 0 0 0 0 1 1 0 1 1 0 0
43 58 71 73 62 44 29 15 4 1 1 1 0 0 0 0 0 0 0 0 0 0 0 0 0 0 0 0 0 0 0 0 0 0 0 0 1 2 4 6 5 2 0
71 79 78 69 62 51 34 19 8 5 4 3 1 0 0 0 0 0 0 0 0 0 0 0 0 0 0 1 2 2 2 1 1 1 0 0 1 2 6 12 13 7 2
71 70 61 58 69 71 56 37 22 16 14 10 5 3 1 0 0 0 3 4 2 1 2 1 3 7 9 9 9 6 4 3 2 1 0 0 0 1 4 13 19 15 7
47 43 42 56 73 79 73 61 46 33 25 20 17 14 7 3 2 2 8 14 14 15 18 14 14 20 23 20 13 8 5 3 1 1 0 0 0 0 1 8 17 17 11
30 29 39 61 76 79 78 75 66 48 34 30 34 31 21 15 14 14 18 26 32 39 40 30 22 23 24 20 11 5 3 2 0 0 0 0 0 0 0 3 9 10 7
38 40 53 70 80 83 82 81 78 63 46 43 49 46 37 29 26 26 27 31 37 45 43 31 22 17 14 12 7 2 1 1 0 0 0 0 0 0 0 0 2 2 1
57 60 69 77 79 80 82 82 82 74 58 53 55 50 38 28 21 21 24 22 23 26 25 22 17 11 6 4 3 1 0 0 0 0 0 0 0 0 0 0 0 0 0
52 57 64 68 68 68 71 72 73 70 60 50 43 33 22 13 8 8 9 9 8 8 9 10 9 5 2 0 0 0 0 0 0 0 0 0 0 0 0 0 0 0 0
24 30 40 45 45 45 46 47 47 45 40 30 20 11 7 4 3 2 1 1 1 1 1 2 2 1 0 0 0 0 0 0 0 0 0 0 0 0 0 0 0 0 0
6 10 17 20 20 19 19 19 19 16 12 8 4 2 1 1 1 0 0 0 1 0 0 0 0 0 0 0 0 0 0 0 0 0 0 0 0 0 0 0 0 0 0
1 2 4 6 7 5 4 4 3 2 1 0 0 0 0 0 1 1 1 0 1 0 0 0 0 0 0 0 0 0 0 0 0 0 0 0 0 0 0 0 0 0 0

GEFSSE_con_prob3kmehi_018.txt.gz
EHI
1 3 17 37 43 36 27 24 21 16 10 6 4 5 9 15 26 41 47 40 26 13 4 1 0 0 0 0 0 0 0 0 0 0 0 0 0 0 0 0 0 0 0
2 3 13 27 32 26 21 18 16 13 9 6 4 3 4 7 12 20 24 22 15 7 2 0 0 0 0 0 0 0 0 0 0 0 0 0 0 0 0 0 0 0 0
3 2 6 14 17 15 13 12 9 8 7 5 3 1 0 1 1 3 4 4 3 2 0 0 0 0 0 0 0 0 0 0 0 0 0 0 0 0 0 0 0 0 0
2 1 1 5 8 9 9 9 6 4 3 3 1 0 0 0 0 0 0 0 0 0 0 0 0 0 0 0 0 0 0 0 0 0 0 0 0 0 0 0 0 0 1
0 0 0 1 4 9 14 14 12 9 6 2 0 0 0 0 0 0 0 0 0 0 0 0 0 0 0 0 0 0 0 0 0 0 0 0 0 1 1 0 0 1 1
0 0 0 2 8 21 29 31 29 26 20 11 3 0 0 0 0 0 0 0 0 0 0 0 0 0 0 0 0 0 0 0 0 0 0 0 0 1 2 1 1 2 2
0 0 1 7 21 37 47 48 45 43 38 26 11 3 1 0 0 0 0 0 0 0 0 0 0 0 0 0 0 0 0 0 0 0 0 0 1 2 3 2 1 2 2
1 1 3 13 31 45 50 49 43 39 36 28 16 6 2 0 0 0 0 0 0 0 0 0 0 0 0 0 0 0 0 0 0 0 0 0 1 2 2 2 1 1 1
3 4 5 13 27 35 36 32 26 20 18 15 11 6 2 0 0 0 0 0 0 0 0 0 0 0 0 0 0 0 0 0 0 0 0 0 1 1 1 1 0 0 0
5 5 5 7 12 14 14 12 9 7 6 6 7 6 2 0 0 0 0 0 0 0 0 0 0 0 0 0 0 0 0 0 0 0 0 0 0 0 0 0 0 0 0
6 4 2 2 2 2 1 1 2 2 3 4 5 5 3 0 0 0 0 0 0 0 0 0 0 0 0 0 0 0 0 0 0 0 0 0 0 0 0 0 0 0 0
10 6 2 0 0 0 0 0 0 0 1 1 2 2 1 0 0 0 0 0 0 0 0 0 0 0 0 0 0 0 0 0 0 0 0 0 0 0 0 0 0 0 0
14 9 3 0 0 0 0 0 0 0 0 0 0 0 0 0 0 0 0 0 0 0 0 0 0 0 0 0 0 0 0 0 0 0 0 0 0 0 0 0 0 0 0
12 9 3 0 0 0 0 0 0 0 0 0 0 0 0 0 0 0 0 0 0 0 0 0 0 0 0 0 0 0 0 0 0 0 0 0 0 0 0 0 0 0 0
7 5 2 0 0 0 0 0 0 0 0 0 0 0 0 0 0 0 0 0 0 0 0 0 0 0 0 0 0 0 0 0 0 0 0 0 0 1 2 2 3 2 2
3 2 0 0 0 0 0 0 0 0 0 0 0 0 0 0 0 0 0 0 0 0 0 0 0 0 0 0 0 0 0 0 0 0 0 0 0 2 4 6 7 8 8
1 1 0 0 0 0 0 0 0 0 0 0 0 0 0 0 0 0 0 0 0 0 0 0 0 0 0 0 0 0 0 0 0 0 0 0 0 1 3 6 10 14 17
1 1 0 0 0 0 0 0 0 0 0 0 0 0 0 0 0 0 0 0 0 0 0 0 0 0 0 0 0 0 0 0 0 0 0 0 0 0 1 2 7 15 21
2 1 0 0 0 0 0 0 0 0 0 0 0 0 0 0 0 0 0 0 0 0 0 0 0 0 0 0 0 0 0 0 0 0 0 0 0 0 0 0 2 8 14
2 1 0 0 0 0 0 0 0 0 0 0 0 0 0 0 0 0 0 0 0 0 0 0 0 0 0 0 0 0 0 0 0 0 0 0 0 0 0 0 0 2 4
1 0 0 0 0 0 0 0 0 0 0 0 0 0 0 0 0 0 0 0 0 0 0 0 0 0 0 0 0 0 0 0 0 0 0 0 0 0 0 0 0 0 1
0 0 0 0 0 0 0 0 0 0 0 0 0 0 0 0 0 0 0 0 0 0 0 0 0 0 0 0 0 0 0 0 0 0 0 0 0 0 0 0 0 0 0
0 0 0 0 0 0 0 0 0 0 0 0 0 0 0 0 0 0 0 0 0 0 0 0 0 0 0 0 0 0 0 0 0 0 0 0 0 0 0 0 0 0 0
0 0 0 0 0 0 0 0 0 0 0 0 0 0 0 0 0 0 0 0 0 0 0 0 0 0 0 0 0 0 0 0 0 0 0 0 0 0 0 0 0 0 0
0 0 0 0 0 0 0 0 0 0 0 0 0 0 0 0 0 0 0 0 0 0 0 0 0 0 0 0 0 0 0 0 0 0 0 0 0 0 0 0 0 0 0
0 0 0 0 0 0 0 0 0 0 0 0 0 0 0 0 0 0 0 0 0 0 0 0 0 0 0 0 0 0 0 0 0 0 0 0 0 0 0 0 0 0 0

GEFSSE_con_prob3kmehi_024.txt.gz
EHI
0 0 0 1 21 57 71 56 39 32 40 56 71 79 82 76 59 34 16 7 2 1 0 0 0 0 0 0 0 0 0 0 0 0 0 0 0 0 0 0 0 0 0
0 0 0 1 19 52 67 56 38 25 24 33 45 53 55 50 36 19 8 4 1 0 0 0 0 0 0 0 0 0 0 0 0 0 0 0 0 0 0 0 0 0 0
0 0 0 2 17 42 58 50 33 17 9 9 13 17 19 17 10 4 1 1 0 0 0 0 0 0 0 0 0 0 0 0 0 0 0 0 0 0 0 0 0 0 0
2 1 1 4 15 33 43 39 26 12 4 1 0 1 2 2 1 0 0 0 0 0 0 0 0 0 0 0 0 0 0 0 0 0 0 0 0 0 0 0 0 0 0
3 1 1 4 14 28 35 31 22 10 3 1 0 0 0 0 0 0 0 0 0 0 0 0 0 0 0 0 0 0 0 0 0 0 1 0 0 0 0 0 0 0 0
2 1 0 3 17 34 41 36 26 14 5 1 0 0 0 0 0 0 0 0 0 0 0 0 0 1 1 0 0 0 0 0 0 0 0 0 0 0 0 0 0 0 0
1 0 0 4 22 45 53 48 39 25 13 7 4 2 1 0 0 0 0 0 0 0 0 0 1 2 1 0 0 0 0 0 0 0 0 0 0 0 0 0 0 0 0
0 0 1 5 22 46 58 56 49 38 25 16 10 5 1 0 0 0 0 0 0 0 0 0 1 1 1 0 0 0 0 0 0 0 0 0 0 0 0 0 0 0 0
1 1 1 3 14 33 46 49 47 40 30 21 13 6 2 1 1 1 1 1 1 1 1 1 1 0 0 0 0 0 0 0 0 0 0 0 0 0 0 0 0 0 0
0 1 2 2 6 14 22 30 32 29 23 17 10 5 2 2 2 2 2 2 2 2 1 1 0 0 0 0 0 0 0 0 0 0 0 0 0 0 0 0 0 0 0
1 2 2 2 2 2 5 10 14 13 11 8 5 3 2 1 1 1 2 2 1 1 1 0 0 0 0 0 0 0 0 0 0 0 0 0 0 0 0 0 0 0 0
3 3 2 1 0 0 0 1 3 3 3 2 1 1 1 0 0 0 1 1 0 0 0 0 0 0 0 0 0 0 0 0 0 0 0 0 0 0 0 0 0 0 0
3 2 1 0 0 0 0 0 0 0 0 0 0 0 0 0 0 0 0 0 0 0 0 0 0 0 0 0 0 0 0 0 0 0 0 0 0 0 0 0 1 1 1
1 1 0 0 0 0 0 0 0 0 0 0 0 0 0 0 0 0 0 0 0 0 0 0 0 0 0 0 0 0 0 0 0 0 0 0 0 1 1 2 3 4 3
0 0 0 0 0 0 0 0 0 0 0 0 0 0 0 0 0 0 0 0 0 0 0 0 0 0 0 0 0 0 0 0 0 0 0 0 0 1 1 2 4 4 4
0 0 0 0 0 0 0 0 0 0 0 0 0 0 0 0 0 0 0 0 0 0 0 0 0 0 0 0 0 0 0 0 0 0 0 0 0 0 1 2 2 3 3
0 0 0 0 0 0 0 0 0 0 0 0 0 0 0 0 0 0 0 0 0 0 0 0 0 0 0 0 0 0 0 0 0 0 0 0 0 0 1 1 2 2 3
0 0 0 0 0 0 0 0 0 0 0 0 0 0 0 0 0 0 0 0 0 0 0 0 0 0 0 0 0 0 0 0 0 0 0 0 0 0 0 1 1 1 1
0 0 0 0 0 0 0 0 0 0 0 0 0 0 0 0 0 0 0 0 0 0 0 0 0 0 0 0 0 0 0 0 0 0 0 0 0 0 0 0 0 0 0
0 0 0 0 0 0 0 0 0 0 0 0 0 0 0 0 0 0 0 0 0 0 0 0 0 0 0 0 0 0 0 0 0 0 0 0 0 0 0 0 0 0 0
0 0 0 0 0 0 0 0 0 0 0 0 0 0 0 0 0 0 0 0 0 0 0 0 0 0 0 0 0 0 0 0 0 0 0 0 0 0 0 0 0 0 0
0 0 0 0 0 0 0 0 0 0 0 0 0 0 0 0 0 0 0 0 0 0 0 0 0 0 0 0 0 0 0 0 0 0 0 0 0 0 0 0 0 0 0
0 0 0 0 0 0 0 0 0 0 0 0 0 0 0 0 0 0 0 0 0 0 0 0 0 0 0 0 0 0 0 0 0 0 0 0 0 0 0 0 0 0 0
0 0 0 0 0 0 0 0 0 0 0 0 0 0 0 0 0 0 0 0 0 0 0 0 0 0 0 0 0 0 0 0 0 0 0 0 0 0 0 0 0 0 0
0 0 0 0 0 0 0 0 0 0 0 0 0 0 0 0 0 0 0 0 0 0 0 0 0 0 0 0 0 0 0 0 0 0 0 0 0 0 0 0 0 0 0
0 0 0 0 0 0 0 0 0 0 0 0 0 0 0 0 0 0 0 0 0 0 0 0 0 0 0 0 0 0 0 0 0 0 0 0 0 0 0 0 0 0 0

GEFSSE_con_prob3kmehi_030.txt.gz
EHI
0 3 6 5 3 3 4 14 40 65 78 77 70 62 51 36 22 12 8 5 3 3 2 1 1 2 3 2 1 2 2 1 0 0 0 0 0 0 0 0 0 0 0
1 4 7 6 4 3 4 11 28 50 66 71 68 58 44 27 14 7 4 3 3 2 2 2 2 2 2 2 1 1 1 0 0 0 0 0 0 0 0 0 0 0 0
1 4 8 10 7 4 5 8 14 25 38 46 47 38 25 14 6 3 1 1 1 1 1 2 3 2 1 1 0 0 0 0 0 0 0 0 0 0 0 0 0 0 0
1 4 12 17 13 8 7 7 7 9 12 17 18 14 9 5 3 2 1 0 0 0 1 2 2 1 0 0 0 0 0 0 0 0 0 0 0 0 0 0 0 0 0
0 5 16 24 23 17 13 12 9 6 4 5 5 4 3 2 1 1 0 0 0 0 0 1 1 0 0 0 0 0 0 0 0 0 0 0 0 1 1 0 0 0 0
0 3 12 21 26 25 22 19 14 8 5 3 3 2 1 1 0 0 0 0 0 0 0 0 0 0 0 0 0 0 0 0 0 0 0 0 2 4 2 0 0 0 0
0 1 4 11 17 21 22 21 15 8 4 2 1 1 0 0 0 0 1 1 1 0 0 0 0 0 0 0 0 0 0 0 0 0 0 1 5 7 4 2 2 2 1
1 0 0 3 6 10 14 14 11 6 3 2 0 0 0 0 0 0 1 2 1 0 0 0 0 0 0 0 0 0 0 0 0 0 0 2 6 6 4 4 4 4 2
2 1 0 0 1 3 6 7 7 5 4 3 1 0 0 0 0 0 1 1 0 0 0 0 0 0 0 0 0 0 0 0 0 0 0 2 4 4 3 3 3 3 2
2 1 0 0 0 1 2 3 4 4 4 3 2 0 0 0 0 0 0 0 0 0 0 0 1 0 0 0 0 0 0 0 0 0 0 1 3 3 3 2 1 1 1
5 2 0 0 0 0 1 2 1 1 2 1 1 0 0 0 0 0 0 0 0 0 0 0 0 0 0 0 0 0 0 0 0 0 0 0 1 2 2 2 2 1 0
11 6 1 0 0 0 1 1 0 0 0 0 0 0 0 0 0 0 0 0 0 0 0 0 0 0 0 0 0 0 0 0 0 0 0 0 0 1 1 1 2 2 1
14 9 3 1 0 0 0 0 0 0 0 0 0 0 0 0 0 0 0 0 0 0 0 0 0 0 0 0 0 0 0 0 0 0 0 0 0 0 0 1 2 1 0
13 9 4 1 1 0 0 0 0 0 0 0 0 0 0 0 0 0 0 0 0 0 0 0 0 0 0 0 0 0 0 0 0 0 0 0 0 0 0 1 1 0 0
10 7 3 1 2 2 1 0 0 1 1 0 0 0 0 0 0 0 1 1 1 0 1 1 0 0 0 0 0 0 0 0 0 0 0 0 0 0 0 0 0 1 1
11 7 3 2 4 5 2 1 1 2 2 1 1 1 0 0 0 0 1 1 1 0 1 1 1 0 0 0 0 0 0 0 0 0 0 0 0 0 0 0 0 1 2
16 12 7 5 7 10 10 7 4 3 3 2 2 1 0 0 0 0 1 1 1 0 1 1 1 1 0 0 0 0 0 0 0 0 0 0 0 0 0 0 0 1 2
25 20 12 8 11 18 24 21 13 8 5 3 2 1 1 1 1 1 1 3 2 1 1 1 2 2 1 0 0 0 0 0 1 1 1 1 1 1 1 0 0 0 1
37 31 23 20 21 25 31 30 21 13 8 4 2 2 1 1 0 1 2 3 3 2 1 1 2 2 1 0 0 0 0 0 1 2 2 2 2 2 1 0 0 0 0
49 45 40 36 32 28 27 25 18 12 7 3 2 1 1 0 0 1 2 2 1 1 1 0 1 1 1 0 0 0 0 0 1 1 1 1 1 1 1 0 0 0 0
54 53 48 41 33 25 20 15 11 8 4 1 1 0 0 0 0 0 1 1 0 0 0 0 0 0 0 0 0 0 0 0 0 0 0 0 0 0 0 0 0 0 0
50 48 42 33 24 18 13 8 5 3 1 0 0 0 0 0 0 0 0 0 0 0 0 0 0 0 0 0 0 0 0 0 0 0 0 0 0 0 0 0 0 0 0
39 36 30 23 17 11 6 3 1 0 0 0 0 0 0 0 0 0 0 0 0 0 0 0 0 0 0 0 0 0 0 0 0 0 0 0 0 0 0 0 0 0 0
24 22 19 15 12 7 4 1 0 0 0 0 0 0 0 0 0 0 0 0 0 0 0 0 0 0 0 0 0 0 0 0 0 0 0 0 0 0 0 0 0 0 0
11 11 11 11 8 5 3 2 0 0 0 0 0 0 0 0 0 0 0 0 0 0 0 0 0 0 0 0 0 0 0 0 0 0 0 0 0 0 0 0 0 0 0
4 5 7 8 6 2 1 1 0 0 0 0 0 0 0 0 0 0 0 0 0 0 0 0 0 0 0 0 0 0 0 0 0 0 0 0 0 0 0 0 0 0 0

GEFSSE_con_prob3kmehi_036.txt.gz
EHI
42 37 47 47 33 26 19 10 5 3 3 3 3 3 3 3 4 7 15 23 22 15 8 5 4 3 3 3 3 3 3 3 3 3 3 3 4 6 10 11 9 7 7
41 35 39 40 29 23 17 9 5 3 3 3 3 3 3 3 4 6 11 15 15 11 7 5 4 3 3 3 3 3 3 3 3 3 3 3 3 5 6 8 8 6 5
31 24 24 25 20 16 13 9 5 4 4 4 4 3 3 3 3 4 6 7 7 6 5 4 3 3 3 3 3 3 3 3 3 3 3 3 3 3 3 5 5 4 4
19 14 11 11 11 9 9 8 6 5 5 5 5 4 3 3 3 3 4 4 5 4 3 3 3 3 3 3 3 3 3 3 3 3 3 5 7 7 4 3 3 3 3
19 15 9 5 5 5 5 6 6 5 5 5 4 3 3 3 3 3 3 3 4 3 3 3 3 3 3 3 3 3 3 3 3 3 5 11 18 15 8 4 3 3 3
30 22 10 4 3 3 3 4 4 4 4 4 3 3 3 3 3 3 3 3 3 3 3 3 3 3 3 3 3 3 3 3 3 3 8 20 29 25 15 8 7 6 5
47 33 13 4 4 3 3 4 3 3 3 3 3 3 3 3 3 3 3 3 3 3 3 3 3 3 3 3 3 3 3 3 3 4 12 25 34 31 22 14 12 11 10
62 43 16 4 5 4 5 6 5 4 3 3 3 3 3 3 3 3 3 3 3 3 3 3 3 3 3 3 2 2 3 3 3 4 12 25 32 30 26 20 16 15 15
67 48 19 5 6 6 8 10 8 5 3 3 3 3 3 3 3 3 3 3 3 3 3 3 3 3 2 1 1 1 1 2 2 3 9 19 26 27 25 21 17 14 15
63 50 28 15 10 8 10 11 9 6 4 3 3 3 3 3 3 3 3 3 3 3 3 2 2 1 1 0 0 0 0 1 1 2 6 14 21 22 20 17 13 11 10
56 55 50 38 22 13 13 12 8 5 4 3 3 3 3 3 3 3 3 4 3 3 1 1 1 0 0 0 0 0 0 0 0 1 6 12 15 14 13 12 9 7 6
45 53 63 58 38 28 27 19 7 4 4 3 3 3 3 3 3 4 5 4 4 2 1 0 0 0 0 0 0 0 0 0 0 1 6 10 10 8 9 9 8 6 5
34 41 56 60 48 43 40 23 9 6 5 5 5 4 3 3 4 5 6 5 4 3 1 1 0 0 0 0 0 0 0 0 0 1 5 9 9 7 7 8 8 7 6
35 34 44 58 60 59 52 30 14 12 12 14 14 9 5 4 4 5 7 6 4 3 4 3 2 1 0 0 0 0 0 0 0 1 4 7 8 7 6 8 10 9 8
55 48 51 69 79 81 72 49 32 30 30 33 29 18 10 10 13 16 16 12 8 9 11 10 7 5 4 2 1 0 0 0 0 1 2 4 6 6 7 9 10 9 9
81 76 76 86 94 95 86 70 60 56 56 56 49 36 26 25 33 37 34 27 22 22 21 16 12 12 10 7 4 1 0 0 1 2 2 2 3 5 7 8 7 7 7
96 95 94 96 98 95 86 78 75 74 76 78 73 59 45 40 45 50 50 44 39 35 29 22 19 19 17 12 9 6 4 4 5 6 6 3 2 4 7 7 5 4 4
99 99 99 98 98 96 89 84 83 84 88 91 87 75 57 44 44 53 57 53 45 39 33 29 25 22 19 15 12 10 9 9 9 10 8 5 3 4 5 5 4 3 3
100 100 99 99 99 99 96 94 93 93 92 90 85 76 60 44 40 49 55 48 39 35 32 26 22 18 14 11 7 7 8 8 8 7 6 5 3 3 2 2 2 2 2
99 100 100 100 100 100 100 98 95 90 85 79 73 64 52 38 31 34 37 31 24 22 21 16 11 8 6 3 2 1 2 3 2 3 3 3 2 2 1 1 1 1 1
99 100 100 100 100 100 99 96 90 81 71 60 50 41 31 23 17 15 14 12 8 8 7 5 3 2 1 0 0 0 0 0 0 1 1 1 1 1 1 1 1 0 0
99 100 100 100 100 99 96 91 83 70 51 35 26 18 12 8 6 4 3 2 1 1 1 0 0 0 0 0 0 0 0 0 0 0 0 0 0 0 0 0 0 0 0
99 100 100 99 97 95 90 82 69 51 30 16 10 6 3 2 1 1 0 0 0 0 0 0 0 0 0 0 0 0 0 0 0 0 0 0 0 0 0 0 0 0 0
97 97 95 93 89 86 81 70 54 34 18 9 4 1 0 0 0 0 0 0 0 0 0 0 0 0 0 0 0 0 0 0 0 0 0 0 0 0 0 0 0 0 0
86 84 79 75 72 69 63 55 41 26 14 6 2 0 0 0 0 0 0 0 0 0 0 0 0 0 0 0 0 0 0 0 0 0 0 0 0 0 0 0 0 0 0
73 68 63 59 55 53 48 42 33 23 12 4 1 0 0 0 0 0 0 0 0 0 0 0 0 0 0 0 0 0 0 0 0 0 0 0 0 0 0 0 0 0 0

GEFSSE_con_prob3kmehi_042.txt.gz
EHI
0 21 62 89 94 94 88 74 59 46 35 25 18 21 35 49 56 60 58 49 35 21 8 3 3 2 2 2 1 0 0 0 1 2 2 1 1 5 7 5 3 2 4
7 27 65 88 92 92 86 74 60 46 34 24 17 18 26 35 41 44 42 34 24 12 4 1 1 1 1 1 0 0 0 0 1 2 1 0 1 3 5 3 1 1 2
21 35 64 84 89 89 83 74 62 48 34 22 14 11 11 14 19 21 20 16 11 4 0 0 0 0 0 0 0 0 0 0 1 1 0 0 0 1 1 1 0 0 1
24 35 56 77 84 82 77 69 59 45 32 21 11 6 3 4 6 8 7 6 4 1 0 0 0 0 0 0 0 0 0 0 0 0 0 0 0 0 0 0 0 0 0
15 26 47 65 71 70 66 58 48 36 25 16 9 4 2 3 3 3 3 1 1 0 0 0 0 0 0 0 0 0 0 0 0 0 0 0 0 0 1 1 0 0 0
8 17 35 51 57 56 53 46 36 26 18 10 5 2 1 1 1 1 1 0 0 0 0 0 0 0 0 0 0 0 0 0 0 0 0 0 1 3 4 3 2 1 1
7 11 23 39 47 47 44 38 29 21 14 7 2 0 0 0 0 0 0 0 0 0 0 0 0 0 0 0 0 0 0 0 0 0 0 0 4 8 10 9 7 5 4
9 9 14 25 36 41 43 39 29 21 15 7 2 1 0 0 0 0 0 0 0 0 0 0 0 0 0 0 0 0 0 0 0 0 0 1 7 14 17 17 15 12 10
9 9 9 12 19 29 38 38 32 24 17 9 4 2 0 0 0 0 0 0 0 0 0 0 0 0 0 0 0 0 0 0 0 0 0 3 10 18 21 22 20 18 17
9 9 9 8 9 15 23 31 30 24 15 8 4 1 0 0 0 0 0 0 0 0 0 0 0 0 0 0 0 0 0 0 0 0 0 4 11 16 18 19 19 19 18
16 14 12 11 10 10 15 21 22 17 10 5 2 0 0 0 0 0 0 0 0 0 0 0 0 0 0 0 0 0 0 0 0 0 1 5 9 11 11 11 14 15 14
33 24 17 15 14 15 16 15 11 6 3 1 0 0 0 0 0 0 0 0 0 0 0 0 0 0 0 0 0 0 0 0 0 0 2 6 8 8 7 8 10 11 11
55 43 30 22 18 19 18 12 5 1 0 0 0 0 0 0 0 0 0 0 0 0 0 0 0 0 0 0 0 0 0 0 0 0 3 8 12 11 10 9 9 10 10
74 67 53 37 24 20 19 12 3 0 0 0 0 0 0 0 0 0 0 0 0 0 0 0 0 0 0 0 0 0 0 0 0 0 3 10 16 16 14 12 11 10 11
86 82 75 59 39 25 19 12 4 1 0 0 0 0 0 0 0 0 0 0 0 0 0 0 0 0 0 0 0 0 0 0 0 0 2 8 14 17 18 16 14 14 13
91 89 86 79 62 41 25 16 9 4 1 0 0 0 0 0 0 0 0 0 0 0 0 0 0 0 0 0 0 0 0 0 0 0 1 3 8 14 20 22 21 18 15
93 90 88 86 78 59 40 28 21 14 8 4 2 2 2 1 1 0 0 0 0 0 0 0 0 0 0 0 0 0 0 0 0 0 0 1 3 8 16 23 24 19 13
90 86 84 86 83 71 55 43 38 31 23 14 7 4 3 2 1 0 0 0 0 0 0 0 0 0 0 0 0 0 0 0 0 0 0 0 0 3 7 14 18 14 10
83 80 81 85 86 80 66 57 53 45 32 21 12 7 5 3 1 0 0 0 0 0 0 0 0 0 0 0 0 0 0 0 0 0 0 0 0 0 1 4 6 7 7
78 78 81 86 89 85 76 67 59 45 29 18 12 8 6 4 2 0 0 0 0 0 0 0 0 0 0 0 0 0 0 0 0 0 0 0 0 0 0 0 1 2 2
78 80 84 88 91 89 80 68 52 34 19 12 8 5 3 2 1 0 0 0 0 0 0 0 0 0 0 0 0 0 0 0 0 0 0 0 0 0 0 0 0 0 0
82 84 87 90 91 86 74 56 37 20 10 6 3 2 1 0 0 0 0 0 0 0 0 0 0 0 0 0 0 0 0 0 0 0 0 0 0 0 0 0 0 0 0
85 86 88 87 84 74 60 42 23 11 4 2 1 0 0 0 0 0 0 0 0 0 0 0 0 0 0 0 0 0 0 0 0 0 0 0 0 0 0 0 0 0 0
86 84 82 78 68 56 44 29 15 5 2 1 0 0 0 0 0 0 0 0 0 0 0 0 0 0 0 0 0 0 0 0 0 0 0 0 0 0 0 0 0 0 0
81 76 68 57 46 34 25 17 8 3 1 0 0 0 0 0 0 0 0 0 0 0 0 0 0 0 0 0 0 0 0 0 0 0 0 0 0 0 0 0 0 0 0
74 68 54 40 28 19 12 8 4 1 0 0 0 0 0 0 0 0 0 0 0 0 0 0 0 0 0 0 0 0 0 0 0 0 0 0 0 0 0 0 0 0 0

GEFSSE_con_prob3kmehi_048.txt.gz
EHI
0 11 29 40 48 62 75 82 85 86 90 93 94 95 94 89 82 73 61 51 42 31 19 9 6 5 4 2 1 0 0 0 0 0 0 0 0 0 0 0 0 0 0
2 13 33 50 62 75 81 83 84 84 85 87 90 92 92 89 83 75 65 53 41 27 15 8 4 4 4 3 1 0 0 0 0 0 0 0 0 0 0 0 0 0 0
9 17 38 62 80 89 90 87 85 81 78 76 77 79 80 79 74 67 58 46 33 19 9 4 2 1 2 1 0 0 0 0 0 0 0 0 0 0 0 0 0 0 0
17 21 40 72 91 95 94 92 87 80 71 62 58 57 57 57 53 46 36 27 18 9 3 1 0 0 0 0 0 0 0 0 0 0 0 0 0 0 0 0 0 0 0
21 23 44 76 93 96 95 93 86 77 64 50 41 36 34 33 31 25 17 10 6 2 0 0 0 0 0 0 0 0 0 0 0 0 0 0 0 0 0 0 0 0 1
22 25 47 76 90 93 93 90 83 72 58 44 32 24 20 18 15 11 6 2 0 0 0 0 0 0 0 0 0 0 0 0 0 0 0 0 0 0 0 1 0 1 2
26 27 44 70 84 86 85 83 77 66 53 40 29 20 14 9 6 3 1 0 0 0 0 0 0 0 0 0 0 0 0 0 0 0 0 0 0 0 0 1 1 1 2
28 26 36 56 70 74 74 72 67 58 46 35 25 16 9 4 1 1 0 0 0 0 0 0 0 0 0 0 0 0 0 0 0 0 0 0 0 1 1 1 2 2 2
19 18 22 33 44 52 57 59 56 48 39 29 19 11 5 1 0 0 0 0 1 0 0 0 0 0 0 0 0 0 0 0 0 0 0 1 1 2 3 3 4 4 2
8 8 10 14 20 25 33 40 42 37 31 23 13 7 3 1 0 0 0 1 1 0 0 0 0 0 0 0 0 0 1 0 0 0 1 2 3 4 4 3 3 3 2
4 4 4 5 8 10 15 20 24 23 19 14 9 5 2 1 0 0 0 1 0 0 0 0 0 0 0 0 0 0 0 0 0 0 1 3 5 5 4 3 2 2 2
4 3 2 3 7 11 11 11 12 12 11 8 6 3 1 0 0 0 0 0 0 0 0 0 0 0 0 0 0 0 0 0 0 0 1 3 5 5 4 2 2 2 3
4 3 2 3 9 16 16 14 14 12 10 6 4 2 1 0 0 0 0 0 0 0 0 0 0 0 0 0 0 0 0 0 0 0 1 3 5 4 3 3 3 3 4
4 3 2 3 9 16 19 19 19 16 12 8 4 2 1 0 0 0 0 0 0 0 0 0 0 0 0 0 0 0 0 0 0 0 1 2 3 2 3 5 5 4 5
6 4 3 5 8 14 19 21 19 16 13 8 3 1 0 0 0 0 0 0 0 0 0 0 0 0 0 0 0 0 0 0 0 0 0 1 1 2 4 7 7 6 5
12 10 8 9 10 13 17 19 16 13 10 7 3 0 0 0 0 0 0 0 0 0 0 0 0 0 0 0 0 0 0 0 0 0 0 0 1 2 4 7 8 8 8
25 21 16 14 14 15 16 16 14 10 8 5 2 0 0 0 0 0 0 0 0 0 0 0 0 0 0 0 0 0 0 0 0 0 0 0 0 1 2 4 7 9 9
47 40 31 26 23 20 18 16 12 9 6 3 1 0 0 0 0 0 0 0 0 0 0 0 0 0 0 0 0 0 0 0 0 0 0 0 0 0 0 1 3 5 6
70 64 55 48 42 35 27 19 12 7 5 3 1 0 0 0 0 0 0 0 0 0 0 0 0 0 0 0 0 0 0 0 0 0 0 0 0 0 0 0 0 1 2
80 80 78 74 66 56 43 28 16 10 8 5 2 0 0 0 0 0 0 0 0 0 0 0 0 0 0 0 0 0 0 0 0 0 0 0 0 0 0 0 0 0 0
78 83 87 86 80 72 59 38 21 13 10 7 4 1 0 0 0 0 0 0 0 0 0 0 0 0 0 0 0 0 0 0 0 0 0 0 0 0 0 0 0 0 0
67 74 82 83 78 71 57 36 18 9 6 5 3 2 0 0 0 0 0 0 0 0 0 0 0 0 0 0 0 0 0 0 0 0 0 0 0 0 0 0 0 0 0
47 57 69 71 64 54 40 22 9 4 2 2 1 1 0 0 0 0 0 0 0 0 0 0 0 0 0 0 0 0 0 0 0 0 0 0 0 0 0 0 0 0 0
32 41 52 53 44 33 23 12 5 2 1 0 0 0 0 0 0 0 0 0 0 0 0 0 0 0 0 0 0 0 0 0 0 0 0 0 0 0 0 0 0 0 0
27 33 36 33 25 18 12 7 4 2 1 0 0 0 0 0 0 0 0 0 0 0 0 0 0 0 0 0 0 0 0 0 0 0 0 0 0 0 0 0 0 0 0
26 28 28 22 15 10 7 4 2 1 0 0 0 0 0 0 0 0 0 0 0 0 0 0 0 0 0 0 0 0 0 0 0 0 0 0 0 0 0 0 0 0 0

GEFSSE_con_prob3kmehi_054.txt.gz
EHI
23 31 27 10 1 1 5 21 53 79 84 76 67 61 55 53 54 56 56 53 49 41 31 17 6 2 0 0 0 0 0 0 0 0 0 0 0 0 0 0 0 0 0
32 39 30 12 3 3 9 28 58 81 87 83 78 75 72 69 67 65 63 58 50 39 26 14 6 2 0 0 0 0 0 0 0 0 0 0 0 0 0 0 0 0 0
45 45 30 14 9 8 14 34 61 82 90 91 90 90 89 85 79 72 64 57 46 31 17 10 6 2 0 0 0 0 0 0 0 0 0 0 0 0 0 0 0 0 0
43 40 28 20 18 15 19 35 61 81 91 94 95 95 94 90 82 69 57 46 34 20 11 7 4 2 0 0 0 0 0 0 0 0 0 0 0 0 0 0 0 0 0
29 31 34 34 30 26 26 38 60 79 88 92 94 94 91 86 76 63 48 33 22 13 8 5 2 1 0 0 0 0 0 0 0 0 0 0 0 0 0 0 0 0 0
17 23 37 45 41 35 35 43 60 75 83 87 89 87 84 77 69 56 38 24 15 9 6 3 1 0 0 0 0 0 0 0 0 0 0 0 1 1 1 0 0 0 0
11 18 35 48 46 41 40 45 57 67 73 76 77 76 74 70 63 49 30 17 11 7 4 1 0 0 0 0 0 0 0 0 0 0 0 0 2 2 1 0 0 0 0
9 15 30 42 42 40 40 43 49 56 59 60 61 62 62 58 52 39 25 14 9 5 2 0 0 0 0 0 0 0 0 0 0 0 0 1 3 3 2 0 0 0 0
7 11 20 29 31 30 32 35 38 41 43 42 41 44 44 40 33 24 17 11 7 4 1 0 0 0 0 0 0 0 0 0 0 0 0 3 5 4 2 2 2 2 2
6 7 10 15 17 16 18 22 24 25 25 24 22 23 23 19 13 9 8 8 6 2 0 1 1 1 0 0 0 0 0 0 0 0 2 7 9 6 4 5 6 6 5
8 6 5 8 9 7 7 11 12 13 13 11 8 7 7 5 3 4 6 7 3 0 1 2 2 2 1 0 0 0 0 0 0 1 5 11 12 8 6 6 6 6 5
12 8 5 6 6 4 4 5 5 6 8 6 4 3 2 1 1 3 8 6 2 0 1 2 3 2 1 0 0 0 0 0 0 1 6 11 11 9 8 7 5 4 3
14 10 6 6 6 5 4 4 3 4 7 7 7 6 4 2 2 3 5 4 2 1 1 2 2 1 0 0 0 0 0 0 0 1 4 8 10 9 9 8 6 4 3
15 11 7 6 8 8 6 5 4 5 6 8 11 10 6 4 3 3 3 4 4 3 2 1 1 0 0 0 0 0 0 0 0 0 1 5 8 9 7 6 6 4 3
20 16 12 11 14 15 12 8 6 7 7 8 10 9 7 4 4 4 5 5 5 4 3 2 1 1 0 0 0 0 0 0 0 0 0 2 5 6 5 4 5 4 3
31 27 23 22 24 24 19 12 9 10 10 9 8 9 8 7 7 7 7 6 5 5 4 2 2 1 0 0 0 0 0 0 0 0 0 0 2 3 4 4 4 4 4
45 42 35 32 35 36 29 23 20 18 16 14 12 12 12 11 11 11 9 9 10 10 7 4 2 1 1 1 0 0 0 0 0 0 0 0 0 1 1 2 2 3 3
59 56 48 43 47 49 45 39 34 30 28 25 20 17 16 15 14 16 17 17 19 17 12 7 4 3 2 2 1 0 0 0 0 0 0 0 0 0 0 0 0 1 1
73 70 65 62 63 65 63 57 50 45 43 37 30 25 21 17 17 20 24 25 24 20 13 8 5 4 3 3 2 0 0 0 0 0 0 0 0 0 0 0 0 0 0
84 83 81 80 81 82 78 71 63 56 50 42 34 28 23 20 20 22 24 23 20 16 11 7 4 3 3 2 1 0 0 0 0 0 0 0 0 0 0 0 0 0 0
87 89 91 92 94 92 86 78 67 56 46 37 29 25 21 19 18 18 17 15 12 10 8 6 3 1 1 1 0 0 0 0 0 0 0 0 0 0 0 0 0 0 0
81 87 92 95 96 92 84 72 59 47 37 28 23 20 16 13 11 9 9 9 7 5 4 3 1 0 0 0 0 0 0 0 0 0 0 0 0 0 0 0 0 0 0
72 78 87 91 92 88 77 61 48 38 30 23 18 14 10 7 5 3 3 4 4 3 2 1 0 0 0 0 0 0 0 0 0 0 0 0 0 0 0 0 0 0 0
68 76 84 87 87 79 65 51 41 33 27 20 12 7 4 3 2 1 1 1 2 1 1 0 0 0 0 0 0 0 0 0 0 0 0 0 0 0 0 0 0 0 0
71 77 81 80 73 61 48 40 33 26 20 13 6 3 1 1 0 0 0 0 0 0 0 0 0 0 0 0 0 0 0 0 0 0 0 0 0 0 0 0 0 0 0
73 75 75 70 58 44 36 32 26 18 12 6 3 1 0 0 0 0 0 0 0 0 0 0 0 0 0 0 0 0 0 0 0 0 0 0 0 0 0 0 0 0 0

GEFSSE_con_prob3kmehi_060.txt.gz
EHI
61 57 60 49 24 8 2 0 0 0 0 0 0 0 1 7 19 30 37 33 24 15 8 2 0 0 0 0 1 3 4 4 5 8 14 19 27 37 39 32 19 7 1
69 66 65 50 24 9 3 1 0 0 0 0 0 0 1 5 15 25 30 28 20 12 6 1 0 0 0 0 1 2 2 2 2 3 5 8 14 23 30 33 26 10 2
71 63 58 47 25 10 3 1 0 1 1 1 1 1 2 6 12 18 21 20 15 9 4 0 0 0 0 0 0 1 1 0 0 0 0 0 2 8 16 23 20 9 2
62 50 46 44 27 11 2 0 0 1 3 4 6 7 8 12 15 16 17 15 12 8 3 0 0 0 0 0 0 0 0 0 0 1 1 0 0 2 6 9 8 6 4
53 43 44 45 31 12 3 0 1 3 7 10 14 17 20 23 23 20 17 13 10 6 2 0 0 0 0 0 0 0 0 0 1 2 2 1 2 2 3 4 5 6 7
50 42 41 44 33 15 4 1 1 5 11 17 23 27 30 32 29 22 17 12 8 5 2 0 0 0 0 0 0 0 0 0 1 1 2 4 7 7 5 5 6 8 8
58 46 38 40 33 15 5 1 3 7 14 22 29 32 35 35 30 23 15 10 6 4 2 1 0 0 0 0 0 0 0 0 0 1 4 10 15 15 10 6 7 7 5
68 52 34 31 26 12 4 1 3 7 13 21 26 30 33 33 29 21 13 8 5 4 3 1 1 0 0 0 0 0 0 0 0 1 7 19 28 25 16 9 7 5 3
69 51 25 14 13 8 3 2 3 5 10 17 20 22 26 26 22 15 9 6 4 3 3 3 2 1 0 0 0 0 0 0 0 1 11 31 45 40 25 14 8 4 2
62 47 21 6 5 4 2 2 4 7 9 12 14 14 15 14 12 8 7 8 7 3 3 4 3 2 0 0 0 0 0 0 1 4 17 42 58 51 34 20 11 5 3
55 46 27 13 7 3 1 2 5 7 7 7 7 7 6 4 3 4 12 20 13 5 3 3 3 2 1 0 0 0 0 0 3 10 28 54 66 57 40 25 14 6 4
48 45 38 27 13 5 5 6 4 3 3 3 2 2 2 1 3 9 24 31 21 7 3 3 3 2 1 0 0 0 0 0 3 13 34 57 65 54 40 27 16 8 5
36 39 45 41 24 13 15 14 6 2 3 3 4 4 3 3 8 19 29 31 21 8 2 1 2 2 1 1 1 1 1 1 3 10 27 46 53 46 36 25 17 11 7
29 31 45 54 43 33 34 27 13 10 11 12 14 14 11 10 16 26 32 29 20 9 3 3 3 3 2 2 1 1 2 3 3 6 16 29 36 35 29 21 14 11 8
38 35 48 68 69 64 61 46 28 25 27 28 30 28 27 27 30 38 43 39 28 17 12 9 8 7 6 4 2 2 3 5 5 6 10 17 23 25 23 16 11 9 8
61 56 64 83 91 90 83 65 44 39 41 45 48 49 47 48 52 56 58 54 43 32 25 21 16 14 11 7 4 3 4 6 7 7 7 9 12 14 15 13 10 9 9
84 81 84 92 98 99 93 77 58 50 53 60 65 67 64 64 68 72 69 64 55 47 39 31 22 17 14 10 6 5 5 5 6 5 5 5 4 5 6 8 8 9 10
97 96 95 95 98 100 96 86 73 67 69 73 76 76 73 72 76 78 75 69 62 55 47 35 24 16 12 10 8 6 4 3 3 3 3 3 2 1 1 3 4 5 6
100 100 99 98 99 99 97 93 86 83 83 82 81 80 76 75 77 78 75 70 63 54 43 33 23 16 11 8 6 3 2 2 3 2 2 1 1 0 0 1 1 1 1
100 100 100 99 99 99 97 96 93 89 87 85 83 79 75 73 73 70 67 62 54 44 34 26 20 13 9 7 3 1 1 2 2 2 1 0 0 0 0 0 0 0 0
99 100 100 100 99 98 97 97 94 90 85 81 76 69 64 62 59 54 49 44 36 28 21 16 12 8 5 4 2 0 0 1 1 1 0 0 0 0 0 0 0 0 0
98 99 99 99 98 97 96 95 92 86 78 68 59 50 44 41 37 33 29 23 18 13 9 6 5 3 2 1 0 0 0 0 0 0 0 0 0 0 0 0 0 0 0
94 95 97 97 97 94 91 87 83 78 68 54 42 33 24 20 17 15 11 8 6 5 4 3 3 2 0 0 0 0 0 0 0 0 0 0 0 0 0 0 0 0 0
88 90 92 93 92 88 84 80 76 69 56 40 28 19 12 7 6 5 3 1 1 2 3 2 2 1 0 0 0 0 0 0 0 0 0 0 0 0 0 0 0 0 0
78 80 82 82 79 75 73 71 66 55 40 25 14 9 5 3 2 1 1 0 0 1 1 1 1 1 0 0 0 0 0 0 0 0 0 0 0 0 0 0 0 0 0
70 71 73 71 67 64 62 60 54 43 27 14 7 5 3 2 1 0 0 0 0 0 0 0 0 0 0 0 0 0 0 0 0 0 0 0 0 0 0 0 0 0 0

GEFSSE_con_prob3kmehi_066.txt.gz
EHI
5 15 38 63 76 76 69 56 42 34 33 36 40 42 48 59 70 73 70 63 50 31 13 4 2 3 2 2 2 3 3 4 4 4 7 13 17 22 27 25 15 9 10
11 19 42 66 76 72 64 51 34 23 22 26 30 32 37 48 56 56 53 47 35 20 8 2 1 2 2 1 2 3 4 4 5 5 8 10 14 19 25 25 21 16 16
26 28 44 67 75 68 57 42 23 11 10 14 16 16 20 28 32 31 27 22 16 8 2 0 0 1 1 1 2 4 5 6 5 5 4 4 7 13 19 23 26 26 24
37 33 44 66 73 64 51 33 15 6 4 5 6 5 7 11 13 12 9 7 4 2 1 0 0 0 0 0 1 4 6 6 4 2 0 0 2 8 15 21 25 27 27
37 35 46 65 70 60 46 27 12 5 2 1 1 1 1 2 3 3 2 1 1 1 0 0 0 0 0 0 1 3 5 4 2 0 0 0 2 7 15 20 21 22 24
37 36 46 60 65 58 45 27 13 7 3 1 0 1 1 0 0 0 0 0 0 0 0 0 0 0 0 0 1 4 5 3 1 0 0 0 3 10 16 19 19 19 20
40 37 42 55 61 56 45 30 19 11 4 1 1 2 1 0 0 0 0 0 0 0 0 0 0 0 0 0 1 4 6 3 0 0 0 0 5 12 16 18 18 18 17
43 39 39 46 54 54 44 30 20 12 5 1 1 2 1 1 1 1 0 0 0 0 0 0 0 0 0 0 0 2 3 2 0 0 0 1 6 12 15 16 17 16 14
39 38 35 35 41 45 38 26 17 10 6 4 3 2 1 2 2 2 1 1 1 0 0 0 0 0 0 0 0 0 1 0 0 0 0 1 7 12 12 12 14 12 11
22 27 28 24 25 27 23 17 11 7 7 6 5 4 3 3 2 2 2 1 1 1 1 1 1 1 1 1 1 1 1 0 0 0 0 2 8 13 12 11 12 11 9
9 13 18 18 16 13 10 7 5 5 5 4 4 4 4 2 1 1 1 2 2 2 3 3 3 3 3 2 2 2 1 0 0 0 1 4 12 18 17 14 14 12 10
7 8 10 13 13 10 6 3 1 1 2 1 1 2 1 0 0 0 1 2 2 3 3 4 5 5 4 3 1 1 1 0 0 1 4 10 19 25 23 18 16 14 13
11 8 7 10 12 11 7 4 1 0 0 0 0 0 0 0 0 0 0 1 1 2 2 3 4 4 3 2 1 0 0 0 0 1 6 15 24 28 25 20 16 14 13
16 12 8 8 10 11 9 5 2 0 0 0 0 0 0 0 0 0 0 0 1 2 2 3 3 3 3 2 1 0 0 0 0 1 7 16 22 24 22 17 13 11 10
28 21 15 12 11 11 9 7 3 1 1 1 1 0 0 0 0 0 0 0 0 1 1 2 3 3 2 1 0 0 0 0 0 1 5 11 14 16 16 12 9 7 7
40 34 26 21 17 15 12 9 5 3 3 3 2 1 1 1 0 0 0 0 0 0 0 1 2 1 1 0 0 0 0 0 0 0 2 4 7 12 13 8 5 5 6
49 45 40 34 29 25 20 13 10 8 6 4 3 3 2 2 1 1 0 0 1 1 0 0 1 0 0 0 0 0 0 0 0 0 0 0 3 8 9 5 1 2 3
58 57 54 50 47 43 35 25 19 15 10 7 5 5 5 5 4 3 2 1 2 2 1 1 1 0 0 0 0 0 0 0 0 0 0 0 1 3 3 1 0 1 1
67 68 67 65 66 65 57 44 34 25 17 12 10 10 10 9 7 6 4 3 3 4 2 1 0 0 0 0 0 0 0 0 0 0 0 0 0 0 0 0 0 1 2
70 72 74 75 78 79 75 65 53 41 29 19 15 13 12 11 9 8 7 5 3 3 3 1 0 0 0 0 0 0 0 0 0 0 0 0 0 0 0 0 0 1 1
67 69 74 79 81 83 82 77 67 53 37 24 16 11 9 8 8 8 8 5 3 2 2 1 0 0 0 0 0 0 0 0 0 0 0 0 0 0 0 0 0 0 0
63 66 71 76 78 80 81 77 66 50 34 23 15 9 6 6 6 7 5 3 1 1 1 0 0 0 0 0 0 0 0 0 0 0 0 0 0 0 0 0 0 0 0
61 64 67 70 72 74 73 69 58 44 30 20 13 8 5 5 5 4 2 1 0 0 0 0 0 0 0 0 0 0 0 0 0 0 0 0 0 0 0 0 0 0 0
54 56 58 60 61 63 61 56 48 38 26 17 10 5 2 3 3 2 1 0 0 0 0 0 0 0 0 0 0 0 0 0 0 0 0 0 0 0 0 0 0 0 0
41 42 45 47 48 48 45 40 34 27 18 11 4 1 0 1 1 0 0 0 0 0 0 0 0 0 0 0 0 0 0 0 0 0 0 0 0 0 0 0 0 0 0
34 34 36 39 40 38 33 28 24 18 12 5 1 0 0 0 0 0 0 0 0 0 0 0 0 0 0 0 0 0 0 0 0 0 0 0 0 0 0 0 0 0 0

GEFSSE_con_prob3kmehi_072.txt.gz
EHI
15 20 23 23 34 59 78 89 95 97 96 95 93 90 84 74 57 38 24 16 10 6 5 5 4 3 4 5 6 6 4 1 0 0 0 0 0 0 1 1 1 1 4
28 30 30 30 40 59 76 87 94 96 96 96 95 94 90 82 70 52 35 23 14 8 5 4 2 2 2 2 3 4 3 1 1 0 0 0 0 0 0 1 1 3 6
48 41 36 39 48 61 76 87 92 94 95 96 96 96 94 88 79 64 46 30 19 11 6 2 1 0 0 0 1 2 2 2 1 0 0 0 0 0 0 1 4 6 8
61 49 41 48 57 67 80 89 92 93 93 94 94 94 90 83 74 62 48 34 24 15 6 1 0 0 1 1 2 1 1 1 1 0 0 0 0 0 0 2 5 8 9
57 49 47 56 64 73 82 89 92 91 90 89 90 87 81 72 64 55 45 34 25 15 6 2 1 1 3 3 2 1 0 0 0 0 0 0 0 0 0 1 5 8 9
50 46 50 60 66 73 81 85 88 88 86 85 84 79 72 64 56 46 36 25 16 9 3 1 1 2 3 3 2 1 0 0 0 0 0 0 1 2 1 2 3 6 7
56 50 52 58 62 68 76 79 80 81 81 81 79 72 63 55 46 33 21 11 6 2 1 0 0 2 3 2 1 1 1 1 0 0 0 1 1 3 3 3 4 5 5
68 60 54 52 53 59 68 73 74 72 73 73 70 61 51 42 31 18 8 3 1 0 0 0 0 1 1 0 1 2 2 1 0 0 0 0 1 3 5 6 6 6 5
68 60 50 42 40 46 55 65 69 67 64 61 56 47 37 26 15 6 2 0 0 0 0 0 0 0 0 0 1 2 2 1 0 0 0 0 1 2 5 7 7 6 5
51 46 39 32 29 33 41 53 60 60 55 49 42 33 24 13 5 2 0 0 0 0 0 0 0 0 0 0 0 1 2 1 0 0 0 0 0 1 3 5 6 5 4
34 30 26 24 23 26 31 37 41 41 39 34 26 19 12 5 1 1 1 1 0 0 0 0 0 0 0 0 0 1 1 0 0 0 0 0 1 1 3 5 5 4 2
28 23 18 18 20 23 25 24 22 20 18 14 10 6 3 1 0 0 0 0 0 0 0 0 0 0 0 0 0 0 0 0 0 0 0 2 4 5 6 8 7 3 1
24 21 15 13 16 18 20 19 16 11 7 4 2 1 0 0 0 0 0 0 0 0 0 0 0 0 0 0 0 0 0 0 0 0 1 5 9 9 9 9 7 4 2
18 17 13 11 13 15 17 19 17 12 7 4 2 0 0 0 0 0 0 0 0 0 0 0 0 0 0 0 0 0 0 0 0 0 3 8 11 11 10 8 7 5 3
12 13 11 10 13 15 16 16 15 11 8 5 2 0 0 0 0 0 0 0 0 0 0 0 0 0 0 0 0 0 0 0 0 0 3 8 11 11 9 8 6 4 2
11 9 8 9 12 14 14 12 11 9 7 4 2 1 0 0 0 0 0 0 0 0 0 0 0 0 0 0 0 0 0 0 0 0 2 6 9 8 8 7 6 4 2
12 8 6 7 9 10 10 9 8 7 5 2 1 1 0 0 0 0 0 0 0 0 0 0 0 0 0 0 0 0 0 0 0 0 0 2 5 6 6 7 5 3 1
16 12 8 7 7 7 6 6 6 5 3 1 0 0 0 0 0 0 0 0 0 0 0 0 0 0 0 0 0 0 0 0 0 0 0 0 1 2 4 4 2 1 0
26 20 14 10 8 7 6 6 6 4 2 1 0 0 0 0 0 0 0 0 0 0 0 0 0 0 0 0 0 0 0 0 0 0 0 0 0 0 1 1 0 0 0
38 33 24 18 14 11 10 10 8 6 3 1 0 0 0 0 0 0 0 0 0 0 0 1 0 0 0 0 0 0 0 0 0 0 0 0 0 0 0 0 0 0 0
45 44 38 30 26 23 21 18 15 9 3 0 0 0 0 0 0 0 0 0 0 0 0 0 0 0 0 0 0 0 0 0 0 0 0 0 0 0 0 0 0 0 0
47 50 49 44 40 37 33 26 19 12 4 0 0 0 0 0 0 0 0 0 0 0 0 0 0 0 0 0 0 0 0 0 0 0 0 0 0 0 0 0 0 0 0
44 48 51 50 47 43 37 28 21 13 7 2 1 1 1 0 0 0 0 0 0 0 0 0 0 0 0 0 0 0 0 0 0 0 0 0 0 0 0 0 0 0 0
40 40 43 44 41 39 34 27 22 16 9 5 3 2 2 1 0 0 0 0 0 0 0 0 0 0 0 0 0 0 0 0 0 0 0 0 0 0 0 0 0 0 0
34 33 32 31 30 30 27 23 20 15 8 3 3 2 2 1 0 0 0 0 0 0 0 0 0 0 0 0 0 0 0 0 0 0 0 0 0 0 0 0 0 0 0
30 29 25 22 23 23 21 18 14 10 4 1 1 1 1 1 0 0 0 0 0 0 0 0 0 0 0 0 0 0 0 0 0 0 0 0 0 0 0 0 0 0 0

GEFSSE_con_prob3kmehi_078.txt.gz
EHI
28 36 35 20 11 14 26 43 55 52 40 35 32 26 21 17 13 8 4 3 5 7 9 13 19 20 15 10 6 3 2 2 1 0 0 1 1 1 0 1 1 0 0
47 48 39 25 18 22 36 53 65 66 59 53 48 43 36 29 20 14 9 7 7 9 10 13 16 15 10 7 4 1 1 1 0 0 0 0 0 0 0 1 2 1 0
68 57 40 31 32 37 50 67 79 82 80 75 70 65 58 48 36 25 16 11 11 11 10 9 9 7 5 3 1 0 0 0 0 0 0 0 0 0 0 1 1 1 0
74 57 39 38 45 52 64 79 89 91 90 88 86 81 75 67 56 40 24 15 13 11 9 7 5 3 2 1 0 0 0 0 0 0 0 0 0 0 0 0 0 0 0
67 53 43 45 53 63 75 88 95 96 96 95 94 91 86 81 72 53 34 21 14 10 9 7 5 3 2 0 0 0 0 0 0 0 0 0 0 0 0 0 0 0 1
54 43 40 47 53 63 78 92 98 99 99 99 98 97 93 88 79 62 44 29 18 12 9 6 5 3 2 1 0 0 0 0 0 0 0 0 0 1 0 0 0 0 1
41 33 33 42 48 56 72 87 96 99 100 99 99 98 96 91 82 67 50 36 25 17 11 7 4 3 2 1 0 0 0 0 1 0 0 1 3 3 1 0 0 0 1
33 29 29 32 35 42 57 75 88 95 98 98 97 97 94 89 81 69 53 41 30 21 13 7 3 2 2 1 1 0 0 0 0 0 0 3 6 5 1 0 0 0 0
28 25 21 19 18 24 36 55 73 86 92 93 94 93 89 82 71 57 46 38 29 19 11 6 2 1 2 2 2 1 0 0 0 0 0 5 8 7 3 2 1 1 0
28 22 15 11 9 9 15 31 50 65 74 77 78 75 68 57 44 31 26 26 20 11 5 2 1 0 1 2 2 1 0 0 0 0 3 8 11 8 5 4 3 2 1
38 27 15 11 8 4 4 12 23 34 43 45 44 42 34 23 14 9 11 14 11 4 2 0 0 0 0 1 2 1 0 0 0 1 7 14 13 8 5 5 5 4 2
51 37 20 12 9 5 4 6 9 13 18 19 19 17 12 6 2 3 8 9 6 2 1 0 0 0 0 0 1 1 0 0 0 2 10 18 15 7 4 6 7 5 3
54 41 24 14 10 7 6 7 9 11 13 14 15 13 9 6 3 3 4 5 4 1 1 1 0 0 0 0 0 0 0 0 1 3 10 18 16 9 5 6 7 5 3
49 40 27 18 15 12 11 11 12 14 16 19 20 16 10 6 3 1 1 2 1 0 0 0 0 0 0 0 0 0 0 1 2 4 10 17 18 12 7 6 7 5 3
43 37 29 23 21 22 21 19 17 17 16 19 21 16 10 7 3 2 3 2 1 0 0 0 0 1 1 0 0 0 1 2 4 5 9 15 16 14 10 6 6 5 4
39 36 33 28 27 30 31 27 23 20 17 17 17 14 9 7 6 5 4 3 1 1 1 1 1 3 3 2 2 2 3 4 4 5 7 11 12 11 9 6 4 5 4
38 37 35 32 31 33 34 31 25 20 17 17 16 12 9 8 8 7 4 3 4 4 4 4 7 9 9 7 6 6 6 5 5 5 6 7 7 7 6 6 5 4 4
35 38 38 34 33 36 36 33 28 25 22 20 18 14 11 11 11 8 6 7 10 10 10 12 16 17 15 12 10 8 7 5 4 4 4 5 5 5 5 5 5 5 5
37 41 42 39 39 41 42 40 37 36 33 28 24 20 16 15 14 11 10 13 16 18 19 22 24 23 19 16 12 7 4 3 1 1 2 2 3 3 4 3 3 4 4
41 44 45 46 49 52 52 49 47 46 43 37 33 30 25 21 20 19 18 18 21 25 28 30 27 23 18 15 11 5 2 1 1 2 2 1 1 1 1 1 2 2 3
42 44 47 53 60 65 65 62 58 54 49 43 39 36 30 26 27 27 24 21 23 26 29 29 24 17 13 11 8 4 1 1 2 3 2 1 0 0 0 1 2 2 2
46 46 49 56 65 71 73 71 69 63 51 42 37 33 27 25 26 25 21 18 19 22 22 20 17 12 8 7 5 4 2 2 2 2 1 0 0 0 0 0 1 2 1
48 49 52 59 68 74 74 73 71 62 47 34 27 22 18 16 15 14 11 9 11 13 12 11 9 8 6 3 2 2 2 1 1 0 0 0 0 0 0 0 0 0 0
46 50 54 61 67 71 71 67 61 49 33 22 16 12 10 8 6 4 3 3 4 4 4 4 4 4 3 1 0 1 1 0 0 0 0 0 0 0 0 0 0 0 0
38 44 50 54 56 57 59 56 46 31 18 12 9 6 4 3 2 1 0 1 1 0 1 1 1 1 1 0 0 0 0 0 0 0 0 0 0 0 0 0 0 0 0
28 34 43 47 47 47 48 45 35 21 11 8 6 3 1 1 0 0 0 0 0 0 0 1 0 0 0 0 0 0 0 0 0 0 0 0 0 0 0 0 0 0 0